Flag for Switzerland Weather past 2 weeks in Lausanne, Vaud, Switzerland

Now
55 °F

Cool.


Feels Like: 55 °F
Forecast: 46 / 69 °F
Wind: 2 mph from Southeast

Location: Aigle

Current Time: Sep 1, 2014 at 11:22:29 PM

Latest Report: Sep 1, 2014 at 10:00 PM


Visibility: N/A

Pressure: 30.10 "Hg

Humidity: 85%

Dew point: 50 °F

Location of LausanneLocation

Historic Weather in Lausanne — Graph

°F

Lausanne temperature yesterday

Maximum temperature yesterday: 69 °F (at 12:00 PM)
Minimum temperature yesterday: 56 °F (at 10:00 PM)
Average temperature yesterday: 63 °F

Past Weeks' High & Low Weather Summary

 TemperatureHumidityPressure
High74 °F (Aug 18, 5:00 PM)100% (Aug 30, 4:00 AM)30.17 "Hg (Aug 30, 4:00 AM)
Low48 °F (Aug 25, 6:00 AM)38% (Aug 21, 4:00 PM)29.81 "Hg (Aug 18, 6:00 PM)
Average62 °F78%30.01 "Hg
* Reported Aug 17 10:00 PM — Sep 1 10:00 PM, Lausanne, Weather by CustomWeather, © 2014

Note: Actual official high and low records may vary slightly from our data, if they occured in-between our weather recording intervals... More about our weather records

Advertising

Lausanne weather history for previous 24 hours

 ConditionsComfort  
Time TempWeatherWind HumidityBarometerVisibility
10:00 PM
Sep 1
55 °FCool.2 mph85%30.10 "HgN/A
9:00 PM58 °FCool.2 mph77%30.08 "HgN/A
8:00 PM64 °FPassing clouds.6 mph56%30.05 "Hg19 mi
7:00 PM65 °FMild.9 mph55%30.04 "HgN/A
6:00 PM67 °FMild.9 mph51%30.04 "HgN/A
5:00 PM68 °FScattered clouds.12 mph52%30.05 "Hg16 mi
4:00 PM68 °FMild.12 mph54%30.05 "HgN/A
3:00 PM65 °FMild.9 mph57%30.06 "HgN/A
2:00 PM64 °FPartly sunny.12 mph59%30.07 "Hg14 mi
1:00 PM63 °FMild.12 mph67%30.08 "HgN/A
12:00 PM61 °FCool.8 mph76%30.08 "HgN/A
11:00 AM60 °FPartly sunny.2 mph77%30.09 "Hg14 mi
10:00 AM58 °FCool.1 mph82%30.09 "HgN/A
9:00 AM56 °FCool.2 mph92%30.10 "HgN/A
8:00 AM53 °FPartly sunny.2 mph97%30.10 "Hg12 mi
7:00 AM52 °FCool.1 mph98%30.10 "HgN/A
6:00 AM54 °FCool.1 mph97%30.09 "HgN/A
5:00 AM55 °FFog.3 mph94%30.09 "Hg6 mi
4:00 AM55 °FCool.3 mph89%30.09 "HgN/A
3:00 AM56 °FCool.3 mph83%30.08 "HgN/A
2:00 AM55 °FCool.3 mph92%30.08 "HgN/A
1:00 AM58 °FCool.3 mph84%30.06 "HgN/A
12:00 AM58 °FCool.7 mph84%30.06 "HgN/A
Weather by CustomWeather, © 2014

See weather overviewHow to use our weather pages